Location: Czekanka
(50.4925°N, 19.2643°E)
Time: 06:46:19
(UTC+00:00)

SL-16 R/B - Pass Details

Date: 23 September 2024
Orbit: 842 x 846 km, 71.0° (Epoch: 05 October)

Event Time Altitude Azimuth Distance (km) Brightness Sun altitude
Rises 01:24:58 0° 332° (NNW) 3,413 5.5 -28.2°
Reaches altitude 10° 01:27:45 10° 344° (NNW) 2,474 4.9 -27.9°
Maximum altitude 01:32:41 30° 44° (NE) 1,483 4.0 -27.2°
Drops below altitude 10° 01:37:36 10° 105° (ESE) 2,462 5.1 -26.6°
Sets 01:40:21 0° 116° (ESE) 3,393 5.7 -26.3°
